User: anonymous   Login
Location: Morgantown
(40.9734°N, 80.6323°W)
Time: 12:16:17
(UTC+00:00)
Language:

TIGRISAT - Orbit

View from above orbital plane
View from above orbital plane
View from above satellite
View from above satellite

Ground track
Ground track

The orbit data is extracted from the following two-line orbital elements,

1 40043U 14033AK  21264.06854719  .00000189  00000-0  34968-4 0  9999
2 40043  97.6668 102.8222 0058627 309.7954  49.8102 14.74584732390222
Epoch (UTC): 21 September 2021 01:38:42
Eccentricity: 0.0058627
inclination: 97.6668°
perigee height: 605 km
apogee height: 687 km
right ascension of ascending node: 102.8222°
argument of perigee: 309.7954°
revolutions per day: 14.74584732
mean anomaly at epoch: 49.8102°
orbit number at epoch: 39022

The dashed part of the orbit path shows where the satellite is in the earth's shadow,  

DLR